Regional Weather Roundup
Issued by NWS

Home | Current Version | Previous Version | Graphics & Text | Print | Product List | Glossary On
Versions: 1 2 3 4 5 6 7 8 9 10 11 12 13 14 15 16 17 18 19 20 21 22 23 24 25 26 27 28 29 30 31 32 33 34 35 36 37 38 39 40 41 42 43 44 45 46 47 48 49 50
654
ASUS44 KLIX 250810
RWRLA
LOUISIANA WEATHER ROUNDUP
NATIONAL WEATHER SERVICE NEW ORLEANS LA
300 AM CDT FRI JUL 25 2014

NOTE: "FAIR" INDICATES FEW OR NO CLOUDS BELOW 12,000 FEET WITH NO
      SIGNIFICANT WEATHER AND/OR OBSTRUCTIONS TO VISIBILITY.
      SKY/WX - SKY CONDITION AND SIGNIFICANT WEATHER.
      TMP - AIR TEMPERATURE.    DP   - DEWPOINT TEMPERATURE.
      RH  - RELATIVE HUMIDITY.  PRES - PRESSURE.
      HX  - HEAT INDEX.         WCI  - WIND CHILL INDEX.

*  THESE STATIONS ARE NOT NWS OR FAA STATIONS AND ARE NOT UNDER
   NWS QUALITY CONTROL.

LAZ040-048-061>063-065-066-069-250900-
SOUTHEAST LOUISIANA

CITY           SKY/WX    TMP DP  RH WIND       PRES   REMARKS
N.O. AUDUBON     N/A     78  77  95 MISG        N/A
N.O. INTL ARPT PTCLDY    79  75  87 W6        29.98F
N.O. LAKEFRONT PTCLDY    82  75  79 SW5       29.99S
N.O. DOWNTOWN* FAIR      81  72  74 S3        29.99F
SLIDELL        CLEAR     76  73  91 CALM      29.98S
BATON ROUGE    PTCLDY    75  73  93 CALM      30.00R FOG
BOOTHVILLE     MOCLDY    82  76  81 W15G21    29.99S
BELLE CHASSE   PTCLDY    77  73  87 W3        29.98F
BOGALUSA*      FAIR      77  73  87 CALM      30.00S
GALLIANO*      NOT AVBL
NEW ROADS*     PTSUNNY   75  75  98 CALM      30.00S FOG
GONZALES*      FAIR      74  74 100 CALM      30.00S FOG
HAMMOND*       CLEAR     75  72  88 CALM      30.00F
HOUMA*         CLEAR     77  73  88 CALM      30.00S
PORT FOURCHON* CLOUDY    82  75  78 W8        30.02R

$$

LAZ041-044-053-054-250900-
SOUTHWEST LOUISIANA

CITY           SKY/WX    TMP DP  RH WIND       PRES   REMARKS
LAKE CHARLES   CLEAR     78  77  96 CALM      29.99S FOG
LAFAYETTE      CLEAR     77  74  90 CALM      30.00S
PATTERSON      CLEAR     75  73  94 CALM      30.04R
SALT POINT       N/A     85  77  77 SW5       29.99S HX  95
NEW IBERIA     CLEAR     76  74  93 CALM      30.01R
CHENAULT AIRPK   N/A     78  75  92 CALM      30.00S FOG

$$

LAZ027-028-250900-
CENTRAL LOUISIANA

CITY           SKY/WX    TMP DP  RH WIND       PRES   REMARKS
FORT POLK      PTCLDY    74  72  93 CALM      30.01S
ALEXANDRIA INT CLEAR     76  75  97 CALM      29.99R
ALEXANDRIA     PTCLDY    74  72  93 CALM      30.00S FOG

$$

LAZ001-002-250900-
NORTHWEST LOUISIANA

CITY           SKY/WX    TMP DP  RH WIND       PRES   REMARKS
SHREVEPORT     CLEAR     76  73  91 SE3       30.01S
BARKSDALE AFB  CLEAR     73  72  96 SE2       30.01F
DTN SHREVEPORT CLEAR     76  72  87 SE5       30.01F

$$

LAZ014-016-250900-
NORTHEAST LOUISIANA

CITY           SKY/WX    TMP DP  RH WIND       PRES   REMARKS
MONROE         CLEAR     74  69  85 CALM      30.02F
TALLULAH       CLEAR     71  67  87 N3        30.01S

$$




USA.gov is the U.S. government's official web portal to all federal, state and local government web resources and services.